Simultaneous Nadir Overpasses (SNOs) Predictions

Prediction of SNOs between GOES-17 and METOP-C Satellite Orbit:

Table of predicted SNOs for the next 14.0 days since TLE Epoch: 5/20/2023
Index Date Time (GOES-17) GOES-17 Lat,Lon METOP-C Lat,Lon Distance(km) Time Diff (sec)
1 05/20/2023 04:15:11 0.00,-104.71 0.68,-101.66 346.74 80
2 05/21/2023 16:34:01 0.00,-104.74 0.31,-106.23 168.78 80
3 05/22/2023 16:16:01 0.00,-104.74 -0.79,-101.23 400.61 80
4 05/24/2023 04:35:00 -0.01,-104.71 -0.28,-105.82 126.93 80
5 05/25/2023 04:11:40 -0.01,-104.70 0.88,-100.83 442.26 80
6 05/26/2023 16:30:30 -0.01,-104.74 0.15,-105.38 73.42 80
7 05/27/2023 16:12:30 -0.02,-104.74 -1.02,-100.40 495.96 80
8 05/29/2023 04:31:30 0.02,-104.71 -0.04,-104.98 31.14 80
9 05/31/2023 16:29:38 -0.02,-104.75 -0.05,-104.54 23.23 80
